找回密码

蓝光电影网

[惊悚] 化装舞会 Masquerade.2021.1080p.BluRay.AVC.DTS-HD.MA.5.1-FGT 24.59GB attachment 蓝光 2021-10-8 6296 hu411024 2021-10-13 15:41
[剧情] 致命ID/杀人游戏/致命身份 Identity.2003.1080p.BluRay.AVC.TrueHD.5.1-FGT 26.81GB attach_img 蓝光 2021-10-6 2358 dgsomeone 2021-10-6 17:56
[喜剧] 空中大灌篮:新传奇 Space.Jam.A.New.Legacy.2021.1080p.BluRay.AVC.TrueHD.7.1.Atmos-FGT 37.21GB attachment 蓝光 2021-10-1 6382 ouhuining 2021-10-12 14:51
[剧情] 猪/寻猪之旅 Pig.2021.1080p.BluRay.AVC.DTS-HD.MA.5.1-ESiR 23.75GB attachment  ...2 蓝光 2021-9-30 11482 raycheung 2021-10-19 09:26
[喜剧] 丛林奇航/丛林巡航 Jungle.Cruise.2021.1080p.BluRay.AVC.DTS-HD.MA.7.1-ESiR 42.86GB attachment  ...2 蓝光 2021-9-29 15638 老黄牛吃嫩草 2021-10-18 06:57
[剧情] 侵犯/触犯 Violation.2020.1080p.BluRay.AVC.DTS-HD.MA.5.1-FGT 19.59GB attachment 蓝光 2021-9-28 4422 zycxjl 2021-10-13 12:53
[剧情] 冰路营救 The.Ice.Road.2021.1080p.BluRay.AVC.TrueHD.5.1-FGT 22.16GB attachment 蓝光 2021-9-28 7407 jkgs2658 7 天前
[科幻] 人类清除计划5/人类清除计划:自由永恒 The.Forever.Purge.2021.1080p.BluRay.AVC.TrueHD.7.1.Atmos-FGT 35.04GB attachment 蓝光 2021-9-28 3429 ouhuining 2021-10-12 14:54
[恐怖] 万能钥匙/害匙 The.Skeleton.Key.2005.1080p.BluRay.VC-1.DTS-HD.MA.5.1-FGT 32GB attachment 蓝光 2021-9-25 0398 蓝光 2021-9-25 00:50
[喜剧] 失控玩家/分身人 Free.Guy.2021.1080p.BluRay.AVC.DTS-HD.MA.7.1-BDA 43.21GB attachment  ...2 蓝光 2021-9-24 151174 smallbull 2021-10-10 12:01
[战争] 希望越来越好 linzhiliu123 2021-9-20 5378 铁哥HD 4 天前
[动作] 黑寡妇 Black.Widow.2021.IMAX.1080p.3D.BluRay.AVC.DTS-HD.MA.7.1-NOGRP 44.23GB attachment  ...234 蓝光 2021-9-19 301590 zhaorunyan 2 小时前
[其他] 不死劫/惊心动魄 Unbreakable.2000.REMASTERED.1080p.BluRay.AVC.DTS-HD.MA.5.1-PCH 42.49GB attachment  ...2 蓝光 2021-9-18 11545 zycxjl 2021-10-7 12:16
[喜剧] 庄园夫人/女领主 Lady.of.the.Manor.2021.1080p.BluRay.AVC.DTS-HD.MA.5.1-FGT 37.11GB attachment 蓝光 2021-9-17 4385 zycxjl 2021-9-28 12:45
[其他] 接住子弹 Catch.the.Bullet.2021.1080p.BluRay.AVC.DTS-HD.MA.5.1-iNTEGRUM 22.48GB attachment 蓝光 2021-9-16 9641 aalyy 2021-10-12 16:46
[剧情] 左拉 Zola.2020.1080p.BluRay.AVC.DTS-HD.MA.5.1-iNTEGRUM 30.67GB attachment 蓝光 2021-9-15 1387 撕夜云雀 2021-9-16 02:56
[喜剧] 宝贝老板2/宝贝老板:家大业大 The.Boss.Baby.Family.Business.2021.1080p.BluRay.AVC.TrueHD.7.1.Atmos-iNTEGRUM 38.05GB attachment 蓝光 2021-9-15 4357 Hantai_Akuma 2021-9-21 10:45
[惊悚] 大浪白鲨/白色巨鯊 Great.White.2021.1080p.US.BluRay.AVC.DTS-HD.MA.5.1-iNTEGRUM 19.35GB attachment 蓝光 2021-9-14 7573 ZHAOSW999 2021-9-28 23:50
[剧情] 爱的后事/當愛離開時 After.Love.2020.1080p.BluRay.AVC.DTS-HD.MA.5.1-INCUBO 43.98GB attachment 蓝光 2021-9-13 7433 zycxjl 2021-10-3 11:44
[其他] 跳跃的原因 The.Reason.I.Jump.2020.1080p.BluRay.AVC.TrueHD.7.1.Atmos-INCUBO 42.46GB attachment 蓝光 2021-9-13 2323 zycxjl 2021-9-27 17:58
[喜剧] 然后怎样 How.It.Ends.2021.1080p.BluRay.AVC.DTS-HD.MA.5.1-iNTEGRUM 20.32GB attachment 蓝光 2021-9-12 4314 zycxjl 2021-9-26 10:18
[喜剧] 进化危机/地球再发育 Evolution.2001.1080p.BluRay.AVC.DTS-HD.MA.5.1-GMB 40.98GB attachment 蓝光 2021-9-12 4462 笑看花间一壶酒 2021-10-13 10:50
[喜剧] 星际旅行4:抢救未来 Star.Trek.IV.The.Voyage.Home.1986.REMASTERED.1080p.BluRay.AVC.TrueHD.7.1-OLDHAM 44.42GB attachment 蓝光 2021-9-11 0463 蓝光 2021-9-11 16:24
[剧情] 断背山/断臂山 Brokeback.Mountain.2005.1080p.BluRay.VC-1.DTS-HD.MA.5.1-FGT 32.51GB attach_img 蓝光 2021-9-10 3463 ouhuining 2021-10-12 14:53
[动作] 黑寡妇 Black.Widow.2021.1080p.BluRay.AVC.DTS-HD.MA.7.1-PCH 41.88GB attachment  ...23 蓝光 2021-9-10 281399 流浪的鸽子 2021-10-18 20:26
[其他] 觉醒 Awaken.2018.1080p.BluRay.AVC.DTS-HR.7.1-UNTOUCHED 22.58GB attachment 蓝光 2021-9-10 4391 wenweny 2021-10-5 07:30
[剧情] 小镇缉凶/迷雾中的小镇 The.Dry.2020.1080p.BluRay.AVC.DTS-HD.MA.5.1-BAKED 28.12GB attachment 蓝光 2021-9-10 1486 1452614933 2021-9-10 12:55
[动作] 星际旅行3:石破天惊 Star.Trek.III.The.Search.for.Spock.1984.REMASTERED.1080p.BluRay.AVC.TrueHD.7.1-OLDHAM 44.50GB attachment 蓝光 2021-9-9 2311 dshappy536 2021-9-10 09:15
[科幻] 星际旅行1:无限太空 Star.Trek.The.Motion.Picture.1979.REMASTERED.1080p.BluRay.AVC.TrueHD.7.1-OLDHAM 44.34GB attachment 蓝光 2021-9-9 6419 n4wdw1 2021-10-7 13:13
[动作] 星际旅行2:可汗怒吼 Star.Trek.II.The.Wrath.of.Khan.1982.REMASTERED.2in1.1080p.BluRay.AVC.TrueHD.7.1-OLDHAM 43.90GB attachment 蓝光 2021-9-9 0250 蓝光 2021-9-9 10:24

快速发帖

还可输入 80 个字符
您需要登录后才可以发帖 登录 | 立即加入

本版积分规则

Archiver|小黑屋| 蓝光电影网 |网站地图

Copyright © 2021 Comsenz Inc. Powered by 蓝光电影网

蓝光电影网

本站内容由用户自主分享和转载自互联网,转载目的在于传递更多信息,并不代表本网赞同其观点和对其真实性负责。

如有侵权、违反国家法律政策行为,请联系我们,我们会第一时间及时清除和处理!

举报反馈邮箱:[email protected]

返回顶部 返回版块